NOAA 16 DEB, 41665

Orbit data source: Space-Track

NOAA 16 DEB, 41665 is space debris in SSO originally from a launch on Thu, 21 Sep 2000 UTC launched from the Air Force Western Test Range (AFWTR). Debris objects in space refer to the collection of defunct objects orbiting the Earth. Examples of debris include non-operational satellites, rocket bodies, and fragments generated from explosions, collisions, or faulty payload assembly.

Loading next visibility...
Identifier
41665, 2000-055PE
Orbit
SSO
Country
Flag of USUS
Related business
Manufacturer
Unknown
Mission
Spacecraft
Bus & Motor
Unknown
Mass
Unknown
Launch date (UTC)
2000-09-21 (26 years ago)
Launch vehicle
Unknown
Launch site
Air Force Western Test Range (AFWTR)
Object type
Payload
Rocket body
Debris
Shape & HBR
Unknown shape, 0.050 m
Radar Cross Section
Small (<0.1 m²)

Expand to show TLE details & history
Last TLE update: 3 days ago

TLE from 3 days ago
0 NOAA 16 DEB
1 41665U 00055PE  26264.19847692  .00000462  00000-0  28563-3 0  9997
2 41665  98.6649 249.3320 0038763 286.0646  73.6258 14.09743419534711
Epoch: 2026-09-21T04:45Z
TLE epoch observation values (Epoch: 2026-09-21T04:45:48.405Z)
Latitude
-0.00006°
Longitude
177.79858°
Altitude
855.341 km
Speed
7.429 km/s
True Right ascension
16h 37m 19s
True Declination
0° 00' 00"
Sunlit
Object was in daylight at epoch
Visualization orbit readout
Latitude
Unknown
Longitude
Unknown
Altitude
Unknown
Speed
Unknown
Apparent Right ascension
Unknown
Apparent Declination
Unknown
Sunlit
N/A
Visualization observer readout
Local Sidereal Time
04:32:16
Azimuth
Unknown
Elevation
Unknown
Doppler factor
Unknown
Orbital elements
Apogee altitude
885.467 km
Perigee altitude
829.373 km
Semi-major axis
7,235.557 km
Eccentricity
0.00388
Inclination
98.6649°
RAAN
249.332°
Arg. of periapsis
286.0646°
True anomaly
74.05255°
Mean anomaly
73.6258°
Eccentric anomaly
73.83912°
Mean motion
3.52643 °/min
Orbital period
102.09 mins
BSTAR
0.00028563
Loading maneuver chart data...
Computing Atmospheric mass density...
Loading historical data...
Loading historical data...
Loading historical data...
Loading historical data...
Loading historical data...
Loading historical data...
Loading historical data...

Documentation

Showing up to 5 results
|